Time,TemperatureF,DewpointF,PressureIn,WindDirection,WindDirectionDegrees,WindSpeedMPH,WindSpeedGustMPH,Humidity,HourlyPrecipIn,Conditions,Clouds,dailyrainin,SoftwareType,DateUTC
2013-01-10 00:22:00,55.0,-99.9,30.01,WNW,300,9.0,11.0,-999,-99.99,,,-99.99,,2013-01-10 08:22:00,
2013-01-10 00:33:00,55.0,-99.9,30.01,WNW,300,9.0,11.0,-999,-99.99,,,-99.99,,2013-01-10 08:33:00,
2013-01-10 00:42:00,55.0,-99.9,30.01,WNW,300,9.0,11.0,-999,-99.99,,,-99.99,,2013-01-10 08:42:00,
2013-01-10 00:50:00,55.0,-99.9,30.00,NW,310,22.0,29.0,-999,-99.99,,,-99.99,,2013-01-10 08:50:00,
2013-01-10 01:22:00,55.0,-99.9,30.00,NW,310,22.0,29.0,-999,-99.99,,,-99.99,,2013-01-10 09:22:00,
2013-01-10 01:32:00,55.0,-99.9,30.00,NW,310,22.0,29.0,-999,-99.99,,,-99.99,,2013-01-10 09:32:00,
2013-01-10 01:43:00,55.0,-99.9,30.00,NW,310,22.0,29.0,-999,-99.99,,,-99.99,,2013-01-10 09:43:00,
2013-01-10 01:50:00,53.0,-99.9,30.00,NW,310,29.0,34.0,-999,-99.99,,,-99.99,,2013-01-10 09:50:00,
2013-01-10 02:22:00,53.0,-99.9,30.00,NW,310,29.0,34.0,-999,-99.99,,,-99.99,,2013-01-10 10:22:00,
2013-01-10 02:33:00,53.0,-99.9,30.00,NW,310,29.0,34.0,-999,-99.99,,,-99.99,,2013-01-10 10:33:00,
2013-01-10 02:43:00,53.0,-99.9,30.00,NW,310,29.0,34.0,-999,-99.99,,,-99.99,,2013-01-10 10:43:00,
2013-01-10 02:50:00,53.0,-99.9,30.00,NW,310,27.0,31.0,-999,-99.99,,,-99.99,,2013-01-10 10:50:00,
2013-01-10 03:23:00,53.0,-99.9,30.00,NW,310,27.0,31.0,-999,-99.99,,,-99.99,,2013-01-10 11:23:00,
2013-01-10 03:33:00,53.0,-99.9,30.00,NW,310,27.0,31.0,-999,-99.99,,,-99.99,,2013-01-10 11:33:00,
2013-01-10 03:43:00,53.0,-99.9,30.00,NW,310,27.0,31.0,-999,-99.99,,,-99.99,,2013-01-10 11:43:00,
2013-01-10 03:50:00,52.0,-99.9,29.98,NW,310,29.0,34.0,-999,-99.99,,,-99.99,,2013-01-10 11:50:00,
2013-01-10 04:22:00,52.0,-99.9,29.98,NW,310,29.0,34.0,-999,-99.99,,,-99.99,,2013-01-10 12:22:00,
2013-01-10 04:33:00,52.0,-99.9,29.98,NW,310,29.0,34.0,-999,-99.99,,,-99.99,,2013-01-10 12:33:00,
2013-01-10 04:43:00,52.0,-99.9,29.98,NW,310,29.0,34.0,-999,-99.99,,,-99.99,,2013-01-10 12:43:00,
2013-01-10 04:50:00,52.0,-99.9,29.96,NW,310,31.0,38.0,-999,-99.99,,,-99.99,,2013-01-10 12:50:00,
2013-01-10 05:22:00,52.0,-99.9,29.96,NW,310,31.0,38.0,-999,-99.99,,,-99.99,,2013-01-10 13:22:00,
2013-01-10 05:33:00,52.0,-99.9,29.96,NW,310,31.0,38.0,-999,-99.99,,,-99.99,,2013-01-10 13:33:00,
2013-01-10 05:42:00,52.0,-99.9,29.96,NW,310,31.0,38.0,-999,-99.99,,,-99.99,,2013-01-10 13:42:00,
2013-01-10 05:50:00,51.0,-99.9,29.97,WNW,300,31.0,38.0,-999,-99.99,,,-99.99,,2013-01-10 13:50:00,
2013-01-10 06:23:00,51.0,-99.9,29.97,WNW,300,31.0,38.0,-999,-99.99,,,-99.99,,2013-01-10 14:23:00,
2013-01-10 06:33:00,51.0,-99.9,29.97,WNW,300,31.0,38.0,-999,-99.99,,,-99.99,,2013-01-10 14:33:00,
2013-01-10 06:44:00,51.0,-99.9,29.97,WNW,300,31.0,38.0,-999,-99.99,,,-99.99,,2013-01-10 14:44:00,
2013-01-10 06:50:00,51.0,-99.9,29.98,WNW,300,31.0,40.0,-999,-99.99,,,-99.99,,2013-01-10 14:50:00,
2013-01-10 07:23:00,51.0,-99.9,29.98,WNW,300,31.0,40.0,-999,-99.99,,,-99.99,,2013-01-10 15:23:00,
2013-01-10 07:33:00,51.0,-99.9,29.98,WNW,300,31.0,40.0,-999,-99.99,,,-99.99,,2013-01-10 15:33:00,
2013-01-10 07:43:00,51.0,-99.9,29.98,WNW,300,31.0,40.0,-999,-99.99,,,-99.99,,2013-01-10 15:43:00,
2013-01-10 07:50:00,50.0,-99.9,30.00,WNW,300,31.0,38.0,-999,-99.99,,,-99.99,,2013-01-10 15:50:00,
2013-01-10 08:23:00,50.0,-99.9,30.00,WNW,300,31.0,38.0,-999,-99.99,,,-99.99,,2013-01-10 16:23:00,
2013-01-10 08:33:00,50.0,-99.9,30.00,WNW,300,31.0,38.0,-999,-99.99,,,-99.99,,2013-01-10 16:33:00,
2013-01-10 08:43:00,50.0,-99.9,30.00,WNW,300,31.0,38.0,-999,-99.99,,,-99.99,,2013-01-10 16:43:00,
2013-01-10 08:50:00,51.0,-99.9,30.03,NW,320,31.0,38.0,-999,-99.99,,,-99.99,,2013-01-10 16:50:00,
2013-01-10 09:33:00,51.0,-99.9,30.03,NW,320,31.0,38.0,-999,-99.99,,,-99.99,,2013-01-10 17:33:00,
2013-01-10 09:43:00,51.0,-99.9,30.03,NW,320,31.0,38.0,-999,-99.99,,,-99.99,,2013-01-10 17:43:00,
2013-01-10 09:50:00,51.0,-99.9,30.04,NW,310,31.0,36.0,-999,-99.99,,,-99.99,,2013-01-10 17:50:00,
2013-01-10 10:23:00,51.0,-99.9,30.04,NW,310,31.0,36.0,-999,-99.99,,,-99.99,,2013-01-10 18:23:00,
2013-01-10 10:33:00,51.0,-99.9,30.04,NW,310,31.0,36.0,-999,-99.99,,,-99.99,,2013-01-10 18:33:00,
2013-01-10 10:44:00,51.0,-99.9,30.04,NW,310,31.0,36.0,-999,-99.99,,,-99.99,,2013-01-10 18:44:00,
2013-01-10 10:50:00,51.0,-99.9,30.04,WNW,300,29.0,34.0,-999,-99.99,,,-99.99,,2013-01-10 18:50:00,
2013-01-10 11:23:00,51.0,-99.9,30.04,WNW,300,29.0,34.0,-999,-99.99,,,-99.99,,2013-01-10 19:23:00,
2013-01-10 11:33:00,51.0,-99.9,30.04,WNW,300,29.0,34.0,-999,-99.99,,,-99.99,,2013-01-10 19:33:00,
2013-01-10 11:44:00,51.0,-99.9,30.04,WNW,300,29.0,34.0,-999,-99.99,,,-99.99,,2013-01-10 19:44:00,
2013-01-10 11:50:00,51.0,-99.9,30.03,WNW,300,25.0,31.0,-999,-99.99,,,-99.99,,2013-01-10 19:50:00,
2013-01-10 12:24:00,51.0,-99.9,30.03,WNW,300,25.0,31.0,-999,-99.99,,,-99.99,,2013-01-10 20:24:00,
2013-01-10 12:33:00,51.0,-99.9,30.03,WNW,300,25.0,31.0,-999,-99.99,,,-99.99,,2013-01-10 20:33:00,
2013-01-10 12:43:00,51.0,-99.9,30.03,WNW,300,25.0,31.0,-999,-99.99,,,-99.99,,2013-01-10 20:43:00,
2013-01-10 12:50:00,52.0,-99.9,30.01,WNW,300,25.0,31.0,-999,-99.99,,,-99.99,,2013-01-10 20:50:00,
2013-01-10 13:23:00,52.0,-99.9,30.01,WNW,300,25.0,31.0,-999,-99.99,,,-99.99,,2013-01-10 21:23:00,
2013-01-10 13:33:00,52.0,-99.9,30.01,WNW,300,25.0,31.0,-999,-99.99,,,-99.99,,2013-01-10 21:33:00,
2013-01-10 13:44:00,52.0,-99.9,30.01,WNW,300,25.0,31.0,-999,-99.99,,,-99.99,,2013-01-10 21:44:00,
2013-01-10 14:27:00,52.0,-99.9,30.01,WNW,300,27.0,34.0,-999,-99.99,,,-99.99,,2013-01-10 22:27:00,
2013-01-10 14:34:00,52.0,-99.9,30.01,WNW,300,27.0,34.0,-999,-99.99,,,-99.99,,2013-01-10 22:34:00,
2013-01-10 14:44:00,52.0,-99.9,30.01,WNW,300,27.0,34.0,-999,-99.99,,,-99.99,,2013-01-10 22:44:00,
2013-01-10 14:50:00,52.0,-99.9,30.02,WNW,290,27.0,31.0,-999,-99.99,,,-99.99,,2013-01-10 22:50:00,
2013-01-10 15:23:00,52.0,-99.9,30.02,WNW,290,27.0,31.0,-999,-99.99,,,-99.99,,2013-01-10 23:23:00,
2013-01-10 15:33:00,52.0,-99.9,30.02,WNW,290,27.0,31.0,-999,-99.99,,,-99.99,,2013-01-10 23:33:00,
2013-01-10 15:43:00,52.0,-99.9,30.02,WNW,290,27.0,31.0,-999,-99.99,,,-99.99,,2013-01-10 23:43:00,
2013-01-10 15:50:00,51.0,-99.9,30.04,NW,320,22.0,29.0,-999,-99.99,,,-99.99,,2013-01-10 23:50:00,
2013-01-10 16:23:00,51.0,-99.9,30.04,NW,320,22.0,29.0,-999,-99.99,,,-99.99,,2013-01-11 00:23:00,
2013-01-10 16:33:00,51.0,-99.9,30.04,NW,320,22.0,29.0,-999,-99.99,,,-99.99,,2013-01-11 00:33:00,
2013-01-10 16:43:00,51.0,-99.9,30.04,NW,320,22.0,29.0,-999,-99.99,,,-99.99,,2013-01-11 00:43:00,
2013-01-10 16:50:00,50.0,-99.9,30.04,NNW,340,25.0,-999.0,-999,-99.99,,,-99.99,,2013-01-11 00:50:00,
2013-01-10 17:24:00,50.0,-99.9,30.04,NNW,340,25.0,-999.0,-999,-99.99,,,-99.99,,2013-01-11 01:24:00,
2013-01-10 17:34:00,50.0,-99.9,30.04,NNW,340,25.0,-999.0,-999,-99.99,,,-99.99,,2013-01-11 01:34:00,
2013-01-10 17:44:00,50.0,-99.9,30.04,NNW,340,25.0,-999.0,-999,-99.99,,,-99.99,,2013-01-11 01:44:00,
2013-01-10 17:50:00,50.0,-99.9,30.06,NNW,330,20.0,25.0,-999,-99.99,,,-99.99,,2013-01-11 01:50:00,
2013-01-10 18:24:00,50.0,-99.9,30.06,NNW,330,20.0,25.0,-999,-99.99,,,-99.99,,2013-01-11 02:24:00,
2013-01-10 18:33:00,50.0,-99.9,30.06,NNW,330,20.0,25.0,-999,-99.99,,,-99.99,,2013-01-11 02:33:00,
2013-01-10 18:44:00,50.0,-99.9,30.06,NNW,330,20.0,25.0,-999,-99.99,,,-99.99,,2013-01-11 02:44:00,
2013-01-10 18:50:00,51.0,-99.9,30.07,NW,320,22.0,29.0,-999,-99.99,,,-99.99,,2013-01-11 02:50:00,
2013-01-10 19:23:00,51.0,-99.9,30.07,NW,320,22.0,29.0,-999,-99.99,,,-99.99,,2013-01-11 03:23:00,
2013-01-10 19:34:00,51.0,-99.9,30.07,NW,320,22.0,29.0,-999,-99.99,,,-99.99,,2013-01-11 03:34:00,
2013-01-10 19:43:00,51.0,-99.9,30.07,NW,320,22.0,29.0,-999,-99.99,,,-99.99,,2013-01-11 03:43:00,
2013-01-10 19:50:00,51.0,-99.9,30.08,NW,320,25.0,29.0,-999,-99.99,,,-99.99,,2013-01-11 03:50:00,
2013-01-10 20:23:00,51.0,-99.9,30.08,NW,320,25.0,29.0,-999,-99.99,,,-99.99,,2013-01-11 04:23:00,
2013-01-10 20:33:00,51.0,-99.9,30.08,NW,320,25.0,29.0,-999,-99.99,,,-99.99,,2013-01-11 04:33:00,
2013-01-10 20:43:00,51.0,-99.9,30.08,NW,320,25.0,29.0,-999,-99.99,,,-99.99,,2013-01-11 04:43:00,
2013-01-10 20:50:00,50.0,-99.9,30.11,NW,320,25.0,29.0,-999,-99.99,,,-99.99,,2013-01-11 04:50:00,
2013-01-10 21:23:00,50.0,-99.9,30.11,NW,320,25.0,29.0,-999,-99.99,,,-99.99,,2013-01-11 05:23:00,
2013-01-10 21:33:00,50.0,-99.9,30.11,NW,320,25.0,29.0,-999,-99.99,,,-99.99,,2013-01-11 05:33:00,
2013-01-10 21:43:00,50.0,-99.9,30.11,NW,320,25.0,29.0,-999,-99.99,,,-99.99,,2013-01-11 05:43:00,
2013-01-10 21:50:00,50.0,-99.9,30.12,NW,320,25.0,29.0,-999,-99.99,,,-99.99,,2013-01-11 05:50:00,
2013-01-10 22:22:00,50.0,-99.9,30.12,NW,320,25.0,29.0,-999,-99.99,,,-99.99,,2013-01-11 06:22:00,
2013-01-10 22:33:00,50.0,-99.9,30.12,NW,320,25.0,29.0,-999,-99.99,,,-99.99,,2013-01-11 06:33:00,
2013-01-10 22:42:00,50.0,-99.9,30.12,NW,320,25.0,29.0,-999,-99.99,,,-99.99,,2013-01-11 06:42:00,
2013-01-10 23:50:00,50.0,-99.9,30.14,NW,320,22.0,27.0,-999,-99.99,,,-99.99,,2013-01-11 07:50:00,